This demonstration page uses our WeatherBlox Daily Observations layout. Learn more.

36.17497, -115.13722

Hourly Observations for June 9, 2015

Temp ( °F °C ) Dew Point ( °F °C ) Humidity (%) Winds ( mph kmh ) Pressure ( in mb ) Visibility ( mi km ) Precip ( " mm )
12:53 am 00:53 Clear 81 27.2 33 0.6 18 18 N 6 9 29.82 1010 10 16.0934 0 0
1:53 am 01:53 Clear 81 27.2 29 -1.7 15 15 NW 5 7 29.81 1010 10 16.0934 0 0
2:53 am 02:53 Clear 83 28.3 30 -1.1 15 15 W 7 11 29.8 1009 10 16.0934 0 0
3:53 am 03:53 Clear 79 26.1 30 -1.1 17 17 SE 5 7 29.8 1009 10 16.0934 0 0
4:53 am 04:53 Clear 81 27.2 30 -1.1 16 16 Calm 29.81 1010 10 16.0934 0 0
5:53 am 05:53 Sunny 80 26.7 30 -1.1 16 16 Calm 29.83 1010 10 16.0934 0 0
6:53 am 06:53 Sunny 81 27.2 33 0.6 18 18 NW 7 11 29.83 1010 10 16.0934 0 0
7:53 am 07:53 Sunny 85 29.4 30 -1.1 14 14 N 5 7 29.83 1010 10 16.0934 0 0
8:53 am 08:53 Sunny 86 30 34 1.1 15 15 SSE 5 7 29.84 1010 10 16.0934 0 0
9:53 am 09:53 Sunny 88 31.1 31 -0.6 13 13 Calm 29.84 1011 10 16.0934 0 0
10:53 am 10:53 Sunny 90 32.2 27 -2.8 10 10 SSE 12 19 29.85 1011 10 16.0934 0 0
11:53 am 11:53 Sunny 89 31.7 28 -2.2 11 11 VRB 5 7 29.85 1011 10 16.0934 0 0
12:53 pm 12:53 Mostly Cloudy 89 31.7 30 -1.1 12 12 SSW 5 7 29.84 1011 10 16.0934 0 0
1:53 pm 13:53 Cloudy 90 32.2 32 0 13 13 VRB 6 9 29.84 1011 10 16.0934 0 0
2:53 pm 14:53 Sunny 91 32.8 35 1.7 14 14 NE 12 19 29.82 1010 10 16.0934 0 0
3:53 pm 15:53 Partly Cloudy 91 32.8 41 5 17 17 ENE 10 17 29.81 1009 10 16.0934 0 0
4:19 pm 16:19 Mostly Cloudy 89 31.7 47 8.3 23 23 SE 13 20 29.65 1004 10 16.0934 0 0
4:53 pm 16:53 Mostly Cloudy 88 31.1 47 8.3 24 24 SE 16 26 29.8 1009 10 16.0934 0 0
5:53 pm 17:53 Cloudy 87 30.6 50 10 28 28 SE 8 13 29.8 1009 10 16.0934 0 0
6:53 pm 18:53 Mostly Cloudy 86 30 49 9.4 28 28 SSE 17 28 29.81 1009 10 16.0934 0 0
7:53 pm 19:53 Partly Cloudy 84 28.9 51 10.6 32 32 SE 13 20 29.81 1010 10 16.0934 0 0
8:53 pm 20:53 Clear 84 28.9 50 10 31 31 SSE 10 17 29.82 1010 10 16.0934 0 0
9:53 pm 21:53 Clear 83 28.3 48 8.9 30 30 SSE 8 13 29.83 1010 10 16.0934 0 0
10:53 pm 22:53 Clear 81 27.2 50 10 34 34 SE 7 11 29.82 1010 10 16.0934 0 0
11:53 pm 23:53 Clear 79 26.1 51 10.6 38 38 SE 7 11 29.81 1010 10 16.0934 0 0

Powered by AerisWeather